EGGP

Liverpool John Lennon Airport

Liverpool, United Kingdom
Issued Wind Visibility Ceiling Temperature Dew Point Humidity Barometer
Sep-24
20:20 UTC
100°
4 KTS
6,003 meters Overcast
1,400' AGL
15° C
59° F
15° C
59° F
100% 30.06" Hg
1018 hPa
MVFR
Sep-24
19:50 UTC
Varies @3 KTS 7,001 meters Broken
2,400' AGL
15° C
59° F
15° C
59° F
100% 30.06" Hg
1018 hPa
MVFR
Sep-24
19:20 UTC
140°
4 KTS
6,003 meters Broken
2,400' AGL
15° C
59° F
15° C
59° F
100% 30.06" Hg
1018 hPa
MVFR
Sep-24
18:50 UTC
110°
4 KTS
7,998 meters Broken
2,400' AGL
16° C
61° F
15° C
59° F
94% 30.06" Hg
1018 hPa
MVFR
Sep-24
18:20 UTC
130°
4 KTS
8,996 meters Broken
3,200' AGL
16° C
61° F
15° C
59° F
94% 30.03" Hg
1017 hPa
VFR
Sep-24
17:50 UTC
150°
6 KTS
8,996 meters Broken
4,400' AGL
17° C
63° F
15° C
59° F
88% 30.03" Hg
1017 hPa
VFR
Sep-24
17:20 UTC
140°
4 KTS
10,000+ meters Broken
4,200' AGL
17° C
63° F
15° C
59° F
88% 30.03" Hg
1017 hPa
VFR
Sep-24
16:50 UTC
160°
6 KTS
10,000+ meters Broken
4,500' AGL
17° C
63° F
16° C
61° F
94% 30.03" Hg
1017 hPa
VFR
Sep-24
16:20 UTC
150°
4 KTS
10,000+ meters Broken
4,200' AGL
19° C
66° F
15° C
59° F
78% 30.03" Hg
1017 hPa
VFR
Sep-24
15:50 UTC
180°
4 KTS
10,000+ meters Broken
3,600' AGL
18° C
64° F
15° C
59° F
83% 30.03" Hg
1017 hPa
VFR
Sep-24
15:20 UTC
170°
5 KTS
10,000+ meters Broken
4,400' AGL
18° C
64° F
15° C
59° F
83% 30.03" Hg
1017 hPa
VFR
Sep-24
14:50 UTC
150°
10 KTS
10,000+ meters Broken
3,400' AGL
19° C
66° F
15° C
59° F
78% 30.03" Hg
1017 hPa
VFR
Sep-24
14:20 UTC
150°
8 KTS
10,000+ meters Broken
3,200' AGL
18° C
64° F
14° C
57° F
78% 30.03" Hg
1017 hPa
VFR
Sep-24
13:50 UTC
160°
6 KTS
10,000+ meters   18° C
64° F
14° C
57° F
78% 30.03" Hg
1017 hPa
VFR
Sep-24
13:20 UTC
160°
7 KTS
10,000+ meters   18° C
64° F
14° C
57° F
78% 30.03" Hg
1017 hPa
VFR
Sep-24
12:50 UTC
140°
6 KTS
10,000+ meters   17° C
63° F
14° C
57° F
83% 30.03" Hg
1017 hPa
VFR
Sep-24
12:20 UTC
150°
8 KTS
10,000+ meters Overcast
4,900' AGL
17° C
63° F
13° C
55° F
77% 30.03" Hg
1017 hPa
VFR
Sep-24
11:50 UTC
140°
8 KTS
10,000+ meters Overcast
4,900' AGL
16° C
61° F
13° C
55° F
83% 30.03" Hg
1017 hPa
VFR
Sep-24
11:20 UTC
140°
8 KTS
10,000+ meters Overcast
4,700' AGL
16° C
61° F
12° C
54° F
77% 30.03" Hg
1017 hPa
VFR
Sep-24
10:50 UTC
150°
8 KTS
10,000+ meters Overcast
4,800' AGL
16° C
61° F
13° C
55° F
83% 30.03" Hg
1017 hPa
VFR
Sep-24
10:20 UTC
150°
9 KTS
10,000+ meters   15° C
59° F
12° C
54° F
82% 30.03" Hg
1017 hPa
VFR
Sep-24
09:50 UTC
140°
10 KTS
10,000+ meters   15° C
59° F
12° C
54° F
82% 30.03" Hg
1017 hPa
VFR
Sep-24
09:20 UTC
140°
9 KTS
10,000+ meters   15° C
59° F
12° C
54° F
82% 30.06" Hg
1018 hPa
VFR
Sep-24
08:50 UTC
140°
9 KTS
10,000+ meters   14° C
57° F
11° C
52° F
82% 30.06" Hg
1018 hPa
VFR
Sep-24
08:20 UTC
140°
10 KTS
10,000+ meters   14° C
57° F
11° C
52° F
82% 30.03" Hg
1017 hPa
VFR
Sep-24
07:50 UTC
130°
7 KTS
10,000+ meters   14° C
57° F
11° C
52° F
82% 30.03" Hg
1017 hPa
VFR
Sep-24
07:20 UTC
120°
7 KTS
10,000+ meters   13° C
55° F
11° C
52° F
88% 30.03" Hg
1017 hPa
VFR
Sep-24
06:50 UTC
110°
8 KTS
10,000+ meters   12° C
54° F
10° C
50° F
88% 30.03" Hg
1017 hPa
VFR
Sep-24
06:20 UTC
130°
7 KTS
10,000+ meters   12° C
54° F
C
48° F
82% 30.03" Hg
1017 hPa
VFR
Sep-24
05:50 UTC
140°
7 KTS
10,000+ meters   12° C
54° F
10° C
50° F
88% 30.03" Hg
1017 hPa
VFR
Sep-24
05:20 UTC
140°
8 KTS
10,000+ meters   12° C
54° F
10° C
50° F
88% 30.03" Hg
1017 hPa
VFR
Sep-24
04:50 UTC
140°
9 KTS
10,000+ meters   12° C
54° F
C
48° F
82% 30.03" Hg
1017 hPa
VFR
Sep-24
04:20 UTC
140°
7 KTS
10,000+ meters   13° C
55° F
10° C
50° F
82% 30.03" Hg
1017 hPa
VFR
Sep-24
03:50 UTC
130°
8 KTS
10,000+ meters   12° C
54° F
10° C
50° F
88% 30.03" Hg
1017 hPa
VFR
Sep-24
03:20 UTC
150°
7 KTS
10,000+ meters   13° C
55° F
10° C
50° F
82% 30.03" Hg
1017 hPa
VFR
Sep-24
02:50 UTC
140°
10 KTS
10,000+ meters   13° C
55° F
10° C
50° F
82% 30.03" Hg
1017 hPa
VFR
Sep-24
02:20 UTC
140°
11 KTS
10,000+ meters   13° C
55° F
10° C
50° F
82% 30.03" Hg
1017 hPa
VFR
Sep-24
01:50 UTC
150°
11 KTS
10,000+ meters   13° C
55° F
10° C
50° F
82% 30.03" Hg
1017 hPa
VFR
Sep-24
01:20 UTC
150°
9 KTS
10,000+ meters   13° C
55° F
11° C
52° F
88% 30.06" Hg
1018 hPa
VFR
Sep-24
00:50 UTC
150°
12 KTS
10,000+ meters   14° C
57° F
11° C
52° F
82% 30.06" Hg
1018 hPa
VFR
Sep-24
00:20 UTC
150°
10 KTS
10,000+ meters   14° C
57° F
10° C
50° F
77% 30.06" Hg
1018 hPa
VFR
Sep-23
23:50 UTC
140°
8 KTS
10,000+ meters   14° C
57° F
10° C
50° F
77% 30.03" Hg
1017 hPa
VFR
Sep-23
23:20 UTC
140°
7 KTS
10,000+ meters   14° C
57° F
10° C
50° F
77% 30.06" Hg
1018 hPa
VFR
Sep-23
22:50 UTC
150°
8 KTS
10,000+ meters   14° C
57° F
10° C
50° F
77% 30.06" Hg
1018 hPa
VFR
Sep-23
22:20 UTC
140°
9 KTS
10,000+ meters   14° C
57° F
10° C
50° F
77% 30.06" Hg
1018 hPa
VFR
Sep-23
21:50 UTC
150°
10 KTS
10,000+ meters   15° C
59° F
11° C
52° F
77% 30.03" Hg
1017 hPa
VFR
Sep-23
21:20 UTC
150°
10 KTS
10,000+ meters   15° C
59° F
11° C
52° F
77% 30.03" Hg
1017 hPa
VFR